DIRECTV 15 (40663 NORAD) Tracking and Keplerian Element Data

This shows tracking and keplerian element data for the satellite.

Feedback or suggestion? Click here.




ElementValue
Catalog40663
NameDIRECTV 15
Epoch Orbit1403
Epoch Day81.99835395
Epoch Year2019
RAAN136.6532
Inclination0.0142
Eccentricity1.83E-05
Argument of Perigee82.9442
Mean Anonmoly219.132
Mean Motion1.00273414
Decay Rate-1.4E-06
L11 40663U 15026A 19081.99835395 -.00000140 00000-0 00000+0 0 9998
L22 40663 0.0142 136.6532 0000183 82.9442 219.1320 1.00273414 14033

Live tracking and technical data element details for DIRECTV 15 (NORAD 40663). DIRECTV 15 can be tracked NOW for your location showing map with azimuth and elevation plus other details from your city location.

Track the satellite on the map from your city or location and see movement details for azimuth, elevation, latitude, longitude, range, height, and movement on the map or in text.







IsCatalogInMostPopularTable: catalog: 40663, numindb: 222
Update: records affected: 1



GetName: 40663 DIRECTV 15

Hit Count: updated at: Sun, 24 Mar 2019 08:38:10 GMT